Riverton, WY

9:36 AM MST on January 20, 2017 (GMT -0700)
Thermopolis

Weather History for KTBX - August, 2014

Change the Weather History Date:

Saturday, August 9, 2014

  Actual Average (KRIW) Record (KRIW)
Temperature  
Mean Temperature 60 °F -  
Max Temperature 68 °F 88 °F 94 °F (2007)
Min Temperature 53 °F 49 °F 49 °F (2009)
Degree Days  
Heating Degree Days 4    
Growing Degree Days 10 (Base 50)    
Moisture  
Dew Point 41 °F    
Average Humidity 48    
Maximum Humidity 72    
Minimum Humidity 33    
Precipitation  
Precipitation 0.00 in - - ()
Sea Level Pressure  
Sea Level Pressure 30.38 in    
Wind  
Wind Speed 14 mph (NW)    
Max Wind Speed 31 mph    
Max Gust Speed 38 mph    
Visibility 10 miles    
Events Rain    
Averages and records for this station are not official NWS values.
T = Trace of Precipitation, MM = Missing Value Source: NWS Daily Summary

Daily Weather History Graph

Daily Weather History Graph

Search for Another Location

Airport or City:

Trip Planner

Search our weather history database for the weather conditions in past years. The results will help you decide how hot, cold, wet, or windy it might be!

Date:

Astronomy

Aug. 09, 2014 Rise Set
Actual Time 6:11 AM MDT 8:24 PM MDT
Civil Twilight 5:39 AM MDT 8:56 PM MDT
Nautical Twilight 5:00 AM MDT 9:35 PM MDT
Astronomical Twilight 4:17 AM MDT 10:18 PM MDT
Moon 7:27 PM MDT (8/9) 4:55 AM MDT (8/9)
Length of Visible Light 15h 16m
Length of Day
14h 13m
Waxing Gibbous, 98% of the Moon is Illuminated
Aug 9
Waxing Gibbous
Aug 10
Full
Aug 17
Last Quarter
Aug 25
New
Sep 2
First Quarter

Hourly Weather History & Observations

Time (MDT) Temp. Dew Point Humidity Pressure Visibility Wind Dir Wind Speed Gust Speed Precip Events Conditions
12:15 AM 59.0 °F 42.8 °F 55% 30.28 in 10.0 mi NNW 9.2 mph - N/A Rain Light Rain
12:35 AM 60.8 °F 42.8 °F 52% 30.28 in 10.0 mi North 6.9 mph - N/A   Overcast
12:55 AM 60.8 °F 41.0 °F 48% 30.28 in 10.0 mi NNE 3.5 mph - N/A   Mostly Cloudy
1:15 AM 60.8 °F 41.0 °F 48% 30.28 in 10.0 mi South 6.9 mph - N/A   Mostly Cloudy
1:35 AM 60.8 °F 41.0 °F 48% 30.28 in 10.0 mi SSW 6.9 mph - N/A   Overcast
1:55 AM 60.8 °F 41.0 °F 48% 30.28 in 10.0 mi SSW 8.1 mph - N/A   Scattered Clouds
2:15 AM 60.8 °F 41.0 °F 48% 30.28 in 10.0 mi South 8.1 mph - N/A   Clear
2:35 AM 59.0 °F 41.0 °F 51% 30.28 in 10.0 mi South 8.1 mph - N/A   Clear
2:55 AM 59.0 °F 41.0 °F 51% 30.28 in 10.0 mi SSE 5.8 mph - N/A   Clear
3:15 AM 60.8 °F 41.0 °F 48% 30.28 in 10.0 mi SSW 4.6 mph - N/A   Clear
3:35 AM 60.8 °F 41.0 °F 48% 30.28 in 10.0 mi SSW 3.5 mph - N/A   Clear
3:55 AM 59.0 °F 41.0 °F 51% 30.29 in 10.0 mi NNW 5.8 mph - N/A   Clear
4:15 AM 55.4 °F 42.8 °F 63% 30.29 in 10.0 mi NNW 10.4 mph - N/A   Clear
4:35 AM 55.4 °F 44.6 °F 67% 30.30 in 10.0 mi NNW 9.2 mph - N/A   Clear
4:55 AM 55.4 °F 44.6 °F 67% 30.30 in 10.0 mi NNW 10.4 mph - N/A   Clear
5:15 AM 53.6 °F 44.6 °F 72% 30.30 in 10.0 mi NNW 11.5 mph - N/A   Clear
5:35 AM 53.6 °F 42.8 °F 67% 30.31 in 10.0 mi North 12.7 mph - N/A   Clear
5:55 AM 55.4 °F 42.8 °F 63% 30.31 in 10.0 mi North 15.0 mph - N/A   Clear
6:15 AM 53.6 °F 42.8 °F 67% 30.32 in 10.0 mi NNW 12.7 mph - N/A   Clear
6:35 AM 53.6 °F 42.8 °F 67% 30.32 in 10.0 mi NNW 16.1 mph - N/A   Clear
6:55 AM 55.4 °F 42.8 °F 63% 30.33 in 10.0 mi NW 13.8 mph - N/A   Clear
7:15 AM 55.4 °F 44.6 °F 67% 30.34 in 10.0 mi NW 15.0 mph - N/A   Clear
7:35 AM 57.2 °F 44.6 °F 63% 30.34 in 10.0 mi NW 13.8 mph - N/A   Clear
7:55 AM 59.0 °F 44.6 °F 59% 30.34 in 10.0 mi NW 16.1 mph - N/A   Clear
8:15 AM 59.0 °F 44.6 °F 59% 30.35 in 10.0 mi WNW 21.9 mph - N/A   Clear
8:35 AM 59.0 °F 42.8 °F 55% 30.36 in 10.0 mi NW 25.3 mph 31.1 mph N/A   Clear
8:55 AM 60.8 °F 42.8 °F 52% 30.36 in 10.0 mi NW 29.9 mph 35.7 mph N/A   Clear
9:15 AM 59.0 °F 42.8 °F 55% 30.37 in 10.0 mi NW 28.8 mph 34.5 mph N/A   Clear
9:35 AM 59.0 °F 42.8 °F 55% 30.38 in 10.0 mi NW 28.8 mph 34.5 mph N/A   Clear
9:55 AM 60.8 °F 42.8 °F 52% 30.38 in 10.0 mi NW 26.5 mph 31.1 mph N/A   Clear
10:15 AM 60.8 °F 42.8 °F 52% 30.39 in 10.0 mi NW 26.5 mph - N/A   Clear
10:35 AM 62.6 °F 42.8 °F 48% 30.39 in 10.0 mi WNW 23.0 mph 31.1 mph N/A   Scattered Clouds
11:15 AM 62.6 °F 42.8 °F 48% 30.41 in 10.0 mi NW 25.3 mph 33.4 mph N/A   Clear
11:35 AM 62.6 °F 42.8 °F 48% 30.41 in 10.0 mi NNW 26.5 mph 34.5 mph N/A   Clear
11:55 AM 62.6 °F 42.8 °F 48% 30.42 in 10.0 mi NNW 20.7 mph 33.4 mph N/A   Clear
12:15 PM 64.4 °F 41.0 °F 42% 30.41 in 10.0 mi NW 31.1 mph 38.0 mph N/A   Clear
12:35 PM 64.4 °F 42.8 °F 45% 30.41 in 10.0 mi NW 27.6 mph 36.8 mph N/A   Scattered Clouds
12:55 PM 64.4 °F 41.0 °F 42% 30.41 in 10.0 mi NW 27.6 mph 35.7 mph N/A   Clear
1:15 PM 66.2 °F 41.0 °F 40% 30.41 in 10.0 mi NW 27.6 mph 34.5 mph N/A   Scattered Clouds
1:35 PM 66.2 °F 41.0 °F 40% 30.42 in 10.0 mi NW 23.0 mph 34.5 mph N/A   Clear
1:55 PM 66.2 °F 41.0 °F 40% 30.42 in 10.0 mi NNW 28.8 mph 35.7 mph N/A   Clear
2:15 PM 68.0 °F 41.0 °F 37% 30.43 in 10.0 mi NW 18.4 mph 33.4 mph N/A   Clear
2:55 PM 68.0 °F 41.0 °F 37% 30.43 in 10.0 mi NNW 24.2 mph 33.4 mph N/A   Scattered Clouds
3:15 PM 68.0 °F 39.2 °F 35% 30.43 in 10.0 mi NNW 23.0 mph 31.1 mph N/A   Scattered Clouds
3:35 PM 66.2 °F 37.4 °F 35% 30.43 in 10.0 mi NW 25.3 mph 32.2 mph N/A   Mostly Cloudy
3:55 PM 66.2 °F 39.2 °F 37% 30.43 in 10.0 mi NW 20.7 mph 33.4 mph N/A   Mostly Cloudy
4:15 PM 64.4 °F 39.2 °F 40% 30.44 in 10.0 mi NW 19.6 mph 26.5 mph N/A   Mostly Cloudy
4:35 PM 68.0 °F 39.2 °F 35% 30.44 in 10.0 mi WNW 25.3 mph 28.8 mph N/A   Mostly Cloudy
4:55 PM 68.0 °F 37.4 °F 33% 30.43 in 10.0 mi NNW 20.7 mph 28.8 mph N/A   Mostly Cloudy
5:15 PM 68.0 °F 37.4 °F 33% 30.43 in 10.0 mi NW 18.4 mph - N/A   Mostly Cloudy
5:35 PM 68.0 °F 39.2 °F 35% 30.44 in 10.0 mi NNW 23.0 mph 26.5 mph N/A   Mostly Cloudy
5:55 PM 68.0 °F 37.4 °F 33% 30.44 in 10.0 mi NW 17.3 mph 26.5 mph N/A   Mostly Cloudy
6:15 PM 66.2 °F 37.4 °F 35% 30.44 in 10.0 mi NW 16.1 mph - N/A   Scattered Clouds
6:35 PM 66.2 °F 37.4 °F 35% 30.44 in 10.0 mi NNW 17.3 mph 25.3 mph N/A   Clear
6:55 PM 66.2 °F 37.4 °F 35% 30.44 in 10.0 mi NW 20.7 mph 25.3 mph N/A   Clear
7:15 PM 66.2 °F 37.4 °F 35% 30.44 in 10.0 mi NW 18.4 mph - N/A   Scattered Clouds
7:55 PM 64.4 °F 37.4 °F 37% 30.44 in 10.0 mi NW 15.0 mph - N/A   Clear
8:15 PM 62.6 °F 37.4 °F 39% 30.45 in 10.0 mi NNW 18.4 mph - N/A   Clear
8:35 PM 62.6 °F 37.4 °F 39% 30.46 in 10.0 mi NNW 12.7 mph - N/A   Clear
8:55 PM 62.6 °F 37.4 °F 39% 30.46 in 10.0 mi NW 11.5 mph - N/A   Clear
9:35 PM 60.8 °F 37.4 °F 42% 30.47 in 10.0 mi NNW 10.4 mph - N/A   Clear
9:55 PM 62.6 °F 37.4 °F 39% 30.49 in 10.0 mi NNW 9.2 mph - N/A   Scattered Clouds
10:15 PM 62.6 °F 37.4 °F 39% 30.49 in 10.0 mi WNW 8.1 mph - N/A   Mostly Cloudy
10:35 PM 60.8 °F 41.0 °F 48% 30.50 in 10.0 mi SE 8.1 mph - N/A   Scattered Clouds
10:55 PM 62.6 °F 41.0 °F 45% 30.50 in 10.0 mi Calm Calm - N/A   Mostly Cloudy
11:15 PM 60.8 °F 42.8 °F 52% 30.50 in 10.0 mi SSE 3.5 mph - N/A   Scattered Clouds
11:35 PM 60.8 °F 42.8 °F 52% 30.50 in 10.0 mi SSE 5.8 mph - N/A   Clear
11:55 PM 59.0 °F 42.8 °F 55% 30.51 in 10.0 mi SSE 4.6 mph - N/A   Scattered Clouds